Date String (YYYY-MM-DD hh:mm:ss) UTC,Instrument flags,absolute air pressure of the measurement (hPa),sample flow rate (lpm),inlet stack bypass flow (lpm),air temperature of the measurement (°C),ambient temperature measured by the external sensor (°C),aerosol sample conditioner tube jacket temperature (°C),OPC LED temperature (°C),internal box temperature (°C),relative humidity of the measurement (%),span deviation,mass concentration of particles derived from Lorenz-Mie calculation of OPC scattering (μg/m³),mass concentration of particles derived from Lorenz-Mie calculation of OPC scattering (μg/m³),mass concentration of particles derived from Lorenz-Mie calculation of OPC scattering (μg/m³)
DateTimeUTC,F1_M11,P_M11,Q1_M11,Q2_M11,T1_M11,T2_M11,T3_M11,T4_M11,T5_M11,U1_M11,ZSPAN_M11,X2_M11,X0_M11,X1_M11
2023-09-12 22:00:00,SystemResetWarning,0831.8,5.01,000.00,028.2,024.7,000.0,036.3,029.5,24.3,0000.9,0005.40,0008.96,0005.06
2023-09-12 22:01:00,SystemResetWarning,0832.0,5.01,000.00,028.1,024.2,000.0,036.3,029.4,24.2,0000.3,0005.37,0008.86,0005.06
2023-09-12 22:02:00,SystemResetWarning,0831.8,4.99,000.00,028.0,024.5,000.0,036.3,029.4,24.2,0000.0,0005.38,0008.84,0005.06
2023-09-12 22:03:00,SystemResetWarning,0831.8,5.00,000.00,028.0,024.9,000.0,036.3,029.4,24.8,0000.0,0005.37,0008.27,0005.06
2023-09-12 22:04:00,SystemResetWarning,0831.8,5.01,000.00,028.0,025.3,000.0,036.3,029.4,24.2,-000.6,0005.38,0008.39,0005.05
2023-09-12 22:05:00,SystemResetWarning,0831.8,5.00,000.00,028.0,025.7,000.0,036.3,029.5,23.8,-000.5,0005.35,0008.38,0005.03
2023-09-12 22:06:00,SystemResetWarning,0831.8,5.00,000.00,028.0,026.1,000.0,036.3,029.6,24.2,-000.7,0005.34,0008.40,0005.02
2023-09-12 22:07:00,SystemResetWarning,0831.8,5.00,000.00,028.1,026.5,000.0,036.3,029.7,23.7,-000.6,0005.32,0008.39,0005.01
2023-09-12 22:08:00,SystemResetWarning,0831.9,5.00,000.00,028.1,026.8,000.0,036.4,029.8,23.7,-000.7,0005.29,0008.61,0004.99
2023-09-12 22:09:00,SystemResetWarning,0831.9,5.00,000.00,028.2,027.0,000.0,036.4,029.9,23.7,-000.1,0005.27,0009.08,0004.98
2023-09-12 22:10:00,SystemResetWarning,0831.9,5.00,000.00,028.2,027.2,000.0,036.4,030.0,23.3,0000.8,0005.28,0009.08,0004.97
2023-09-12 22:11:00,SystemResetWarning,0831.9,4.99,000.00,028.2,026.7,000.0,036.4,029.9,23.1,0001.0,0005.29,0009.85,0004.96
2023-09-12 22:12:00,SystemResetWarning,0831.9,4.99,000.00,028.2,025.0,000.0,036.3,029.6,23.5,0001.4,0005.29,0010.90,0004.94
2023-09-12 22:13:00,SystemResetWarning,0832.0,5.01,000.00,028.1,024.2,000.0,036.2,029.4,23.5,0001.6,0005.27,0010.87,0004.93
2023-09-12 22:14:00,SystemResetWarning,0832.3,5.01,000.00,028.0,024.3,000.0,036.2,029.4,23.7,0001.4,0005.26,0010.88,0004.92
2023-09-12 22:15:00,SystemResetWarning,0832.3,5.00,000.00,028.0,024.7,000.0,036.3,029.4,23.9,0001.5,0005.26,0010.82,0004.92
2023-09-12 22:16:00,SystemResetWarning,0832.1,5.00,000.00,027.9,025.2,000.0,036.3,029.4,24.0,0001.5,0005.25,0010.76,0004.91
2023-09-12 22:17:00,SystemResetWarning,0832.0,5.00,000.00,027.9,025.6,000.0,036.3,029.5,24.4,0001.5,0005.26,0010.77,0004.92
2023-09-12 22:18:00,SystemResetWarning,0832.2,5.00,000.00,028.0,026.0,000.0,036.3,029.6,24.0,0001.2,0005.25,0010.67,0004.91
2023-09-12 22:19:00,SystemResetWarning,0832.2,5.00,000.00,028.0,026.4,000.0,036.3,029.7,24.1,0001.1,0005.25,0010.93,0004.89
2023-09-12 22:20:00,SystemResetWarning,0832.2,4.99,000.00,028.1,026.7,000.0,036.3,029.8,24.3,0000.8,0005.24,0010.61,0004.87
2023-09-12 22:21:00,SystemResetWarning,0832.2,5.00,000.00,028.1,026.9,000.0,036.4,029.9,23.8,0000.4,0005.24,0010.65,0004.86
2023-09-12 22:22:00,SystemResetWarning,0832.2,5.00,000.00,028.2,027.1,000.0,036.4,029.9,23.5,0000.1,0005.24,0010.44,0004.85
2023-09-12 22:23:00,SystemResetWarning,0832.0,4.99,000.00,028.2,027.0,000.0,036.4,030.0,23.4,-000.6,0005.27,0009.11,0004.85
2023-09-12 22:24:00,SystemResetWarning,0831.8,4.98,000.00,028.2,025.4,000.0,036.3,029.6,23.8,-001.2,0005.26,0009.04,0004.84
2023-09-12 22:25:00,SystemResetWarning,0831.7,5.01,000.00,028.1,024.3,000.0,036.2,029.4,22.2,-001.4,0005.26,0009.13,0004.82
2023-09-12 22:26:00,SystemResetWarning,0831.7,5.01,000.00,028.0,024.3,000.0,036.2,029.4,21.7,-001.4,0005.23,0009.78,0004.80
2023-09-12 22:27:00,SystemResetWarning,0831.7,5.00,000.00,028.0,024.6,000.0,036.2,029.4,22.3,-001.5,0005.20,0009.70,0004.79
2023-09-12 22:28:00,SystemResetWarning,0831.7,4.99,000.00,027.9,025.1,000.0,036.2,029.4,22.6,-001.7,0005.19,0009.67,0004.78
2023-09-12 22:29:00,SystemResetWarning,0831.7,5.01,000.00,027.9,025.5,000.0,036.2,029.5,22.6,-001.9,0005.17,0009.62,0004.77
2023-09-12 22:30:00,SystemResetWarning,0831.7,5.01,000.00,028.0,025.9,000.0,036.3,029.6,22.7,-001.9,0005.15,0009.44,0004.77
2023-09-12 22:31:00,SystemResetWarning,0831.7,4.99,000.00,028.0,026.3,000.0,036.3,029.7,22.0,-001.3,0005.15,0009.01,0004.78
2023-09-12 22:32:00,SystemResetWarning,0831.7,5.00,000.00,028.0,026.6,000.0,036.3,029.7,22.3,-000.3,0005.14,0009.19,0004.77
2023-09-12 22:33:00,SystemResetWarning,0831.7,5.00,000.00,028.1,026.9,000.0,036.3,029.8,22.7,0000.2,0005.10,0009.31,0004.76
2023-09-12 22:34:00,SystemResetWarning,0831.7,5.00,000.00,028.2,027.1,000.0,036.4,029.9,22.7,0000.7,0005.06,0009.20,0004.76
2023-09-12 22:35:00,SystemResetWarning,0831.7,5.00,000.00,028.2,027.2,000.0,036.4,030.0,22.9,0000.9,0005.07,0009.21,0004.76
2023-09-12 22:36:00,SystemResetWarning,0831.6,4.98,000.00,028.2,025.9,000.0,036.3,029.7,23.2,0000.8,0005.05,0009.17,0004.76
2023-09-12 22:37:00,SystemResetWarning,0831.6,5.00,000.00,028.1,024.4,000.0,036.2,029.4,23.3,0000.7,0005.05,0008.59,0004.76
2023-09-12 22:38:00,SystemResetWarning,0831.6,5.01,000.00,028.1,024.1,000.0,036.2,029.4,23.6,0000.4,0005.06,0008.57,0004.75
2023-09-12 22:39:00,SystemResetWarning,0831.6,5.00,000.00,028.0,024.4,000.0,036.2,029.3,23.2,0000.4,0005.11,0009.51,0004.77
2023-09-12 22:40:00,SystemResetWarning,0831.6,4.99,000.00,027.9,024.9,000.0,036.2,029.4,23.2,0000.4,0005.16,0010.18,0004.80
2023-09-12 22:41:00,SystemResetWarning,0831.6,5.00,000.00,027.9,025.3,000.0,036.2,029.4,23.2,0000.3,0005.16,0010.15,0004.81
2023-09-12 22:42:00,SystemResetWarning,0831.6,5.00,000.00,027.9,025.8,000.0,036.2,029.5,23.8,0000.2,0005.17,0010.12,0004.81
2023-09-12 22:43:00,SystemResetWarning,0831.6,5.01,000.00,028.0,026.2,000.0,036.3,029.6,23.2,-000.5,0005.20,0010.10,0004.83
2023-09-12 22:44:00,SystemResetWarning,0831.6,5.00,000.00,028.0,026.5,000.0,036.3,029.7,23.3,-001.0,0005.22,0009.98,0004.83
2023-09-12 22:45:00,SystemResetWarning,0831.6,5.00,000.00,028.1,026.8,000.0,036.3,029.8,23.1,-001.2,0005.21,0010.25,0004.83
2023-09-12 22:46:00,SystemResetWarning,0831.6,5.00,000.00,028.1,027.0,000.0,036.3,029.9,23.0,-001.1,0005.19,0010.21,0004.83
2023-09-12 22:47:00,SystemResetWarning,0831.6,5.00,000.00,028.2,027.2,000.0,036.4,030.0,22.8,-001.1,0005.16,0010.08,0004.82
2023-09-12 22:48:00,SystemResetWarning,0831.6,4.99,000.00,028.2,026.3,000.0,036.3,029.8,22.7,-000.5,0005.17,0010.52,0004.82
2023-09-12 22:49:00,SystemResetWarning,0831.6,5.00,000.00,028.1,024.7,000.0,036.3,029.4,23.1,-000.3,0005.18,0010.78,0004.81
2023-09-12 22:50:00,SystemResetWarning,0831.6,5.02,000.00,028.1,024.2,000.0,036.2,029.4,23.3,-000.1,0005.12,0010.00,0004.79
2023-09-12 22:51:00,SystemResetWarning,0831.6,5.00,000.00,028.0,024.4,000.0,036.2,029.3,23.2,-000.2,0005.08,0009.22,0004.77
2023-09-12 22:52:00,SystemResetWarning,0831.6,5.00,000.00,027.9,024.8,000.0,036.2,029.3,23.3,-000.2,0005.08,0009.25,0004.74
2023-09-12 22:53:00,SystemResetWarning,0831.6,5.00,000.00,027.9,025.3,000.0,036.2,029.4,23.4,-000.1,0005.09,0009.29,0004.73
2023-09-12 22:54:00,SystemResetWarning,0831.6,5.00,000.00,027.9,025.7,000.0,036.2,029.5,23.3,0000.1,0005.06,0009.19,0004.73
2023-09-12 22:55:00,SystemResetWarning,0831.6,5.00,000.00,027.9,026.1,000.0,036.2,029.6,23.1,0000.4,0005.03,0009.00,0004.73
2023-09-12 22:56:00,SystemResetWarning,0831.6,5.00,000.00,028.0,026.4,000.0,036.3,029.7,23.2,0000.2,0005.05,0008.69,0004.73
2023-09-12 22:57:00,SystemResetWarning,0831.6,4.99,000.00,028.0,026.7,000.0,036.3,029.8,23.0,0000.4,0005.04,0008.64,0004.72
2023-09-12 22:58:00,SystemResetWarning,0831.6,4.99,000.00,028.1,027.0,000.0,036.3,029.9,23.4,0000.7,0005.06,0008.69,0004.73
2023-09-12 22:59:00,SystemResetWarning,0831.7,5.00,000.00,028.2,027.2,000.0,036.3,029.9,23.6,0000.5,0005.06,0008.33,0004.73
